Location: Grand Rapids
(42.9630°N, 85.6680°W)
Time: 03:32:33
(UTC-04:00)

A-11 Canister half - Pass Details

Date: 07 June 2024
Orbit: 1524 x 1684 km, 47.3° (Epoch: 21 June)

Event Time Altitude Azimuth Distance (km) Brightness Sun altitude
Rises 20:58:01 0° 271° (W) 4,672 12.8 2.6°
Reaches altitude 10° 21:01:05 10° 274° (W) 3,692 12.4 2.1°
Maximum altitude 21:10:21 68° 357° (N) 1,639 9.4 0.6°
Drops below altitude 10° 21:19:50 10° 81° (E) 3,768 10.6 -0.8°
Sets 21:23:00 0° 84° (E) 4,774 11.1 -1.3°
